Weather History for Corpus Christi, TX

Change the Weather History Date:

Monday, January 14, 2013

  Actual Average Record
Temperature  
Mean Temperature 47 °F 57 °F  
Max Temperature 51 °F 67 °F 83 °F (1971)
Min Temperature 43 °F 47 °F 19 °F (1982)
Degree Days  
Heating Degree Days 18 9  
Month to date heating degree days 121 126  
Since 1 July heating degree days 296 477  
Cooling Degree Days 0 1  
Month to date cooling degree days 11 14  
Year to date cooling degree days 11 14  
Moisture  
Dew Point 38 °F    
Average Humidity 62    
Maximum Humidity 70    
Minimum Humidity 54    
Precipitation  
Precipitation T in 0.04 in 1.89 in (1902)
Month to date precipitation 1.17 0.71  
Year to date precipitation 1.17 0.71  
Snow  
Snow 0.00 in - - ()
Month to date snowfall 0.0  
Since 1 July snowfall 0.0  
Snow Depth 0.00 in    
Sea Level Pressure  
Sea Level Pressure 30.12 in    
Wind  
Wind Speed 14 mph (NNE)    
Max Wind Speed 21 mph    
Max Gust Speed 25 mph    
Visibility 9 miles    
Events Rain    
T = Trace of Precipitation, MM = Missing Value Source: NWS Daily Summary

Daily Weather History Graph

Daily Weather History Graph

Search for Another Location

Airport:

Trip Planner

Search our weather history database for the weather conditions in past years. The results will help you decide how hot, cold, wet, or windy it might be!

Date:

Astronomy

Jan. 14, 2013 Rise Set
Actual Time 7:22 AM CST 5:56 PM CST
Civil Twilight 6:57 AM CST 6:21 PM CST
Nautical Twilight 6:28 AM CST 6:50 PM CST
Astronomical Twilight 5:59 AM CST 7:18 PM CST
Moon 9:17 AM CST (1/14) 9:20 PM CST (1/14)
Length of Visible Light 11h 24m
Length of Day
10h 34m
Waxing Crescent, 11% of the Moon is Illuminated
Jan 14
Waxing Crescent
Jan 18
First Quarter
Jan 26
Full
Feb 3
Last Quarter
Feb 10
New

Hourly Weather History & Observations

Time (CST) Temp. Windchill Dew Point Humidity Pressure Visibility Wind Dir Wind Speed Gust Speed Precip Events Conditions
12:51 AM 51.1 °F - 35.1 °F 54% 30.09 in 10.0 mi NE 18.4 mph - N/A   Overcast
1:51 AM 50.0 °F - 36.0 °F 59% 30.10 in 10.0 mi NNE 11.5 mph - N/A   Overcast
2:51 AM 50.0 °F - 35.1 °F 57% 30.12 in 10.0 mi NNE 15.0 mph - N/A   Overcast
3:51 AM 48.9 °F - 36.0 °F 61% 30.10 in 10.0 mi NNE 15.0 mph - N/A   Overcast
4:16 AM 48.2 °F - 35.6 °F 62% 30.11 in 10.0 mi North 15.0 mph - N/A   Overcast
4:51 AM 48.0 °F - 36.0 °F 63% 30.11 in 10.0 mi North 16.1 mph - N/A   Overcast
5:51 AM 46.9 °F - 35.1 °F 63% 30.11 in 10.0 mi North 12.7 mph - N/A   Overcast
6:51 AM 46.0 °F 38.8 °F 34.0 °F 63% 30.14 in 10.0 mi North 18.4 mph - N/A   Overcast
7:51 AM 45.0 °F 37.1 °F 34.0 °F 65% 30.17 in 10.0 mi North 19.6 mph - N/A   Overcast
8:51 AM 44.6 °F 36.9 °F 33.8 °F 66% 30.18 in 10.0 mi North 18.4 mph - N/A   Overcast
9:51 AM 44.1 °F 36.5 °F 34.0 °F 68% 30.19 in 10.0 mi North 17.3 mph - N/A   Overcast
10:18 AM 44.6 °F 37.8 °F 35.6 °F 71% 30.19 in 10.0 mi NNE 15.0 mph - N/A   Overcast
10:51 AM 45.0 °F 38.2 °F 36.0 °F 71% 30.19 in 10.0 mi NNE 15.0 mph - N/A   Overcast
11:29 AM 44.6 °F 38.4 °F 35.6 °F 71% 30.17 in 10.0 mi North 12.7 mph - N/A   Overcast
11:51 AM 45.0 °F 38.9 °F 36.0 °F 71% 30.16 in 10.0 mi North 12.7 mph - N/A   Overcast
12:51 PM 45.0 °F 38.9 °F 37.0 °F 74% 30.14 in 10.0 mi North 12.7 mph - 0.00 in   Light Drizzle
1:51 PM 46.0 °F 40.2 °F 37.9 °F 73% 30.11 in 10.0 mi North 12.7 mph - 0.00 in   Overcast
2:51 PM 48.0 °F - 37.9 °F 68% 30.10 in 10.0 mi North 11.5 mph - N/A   Overcast
3:03 PM 48.2 °F - 37.4 °F 66% 30.10 in 10.0 mi NNE 11.5 mph - N/A   Overcast
3:51 PM 48.0 °F - 37.9 °F 68% 30.11 in 10.0 mi NNE 8.1 mph - N/A   Overcast
4:51 PM 48.0 °F - 37.9 °F 68% 30.12 in 10.0 mi NNE 11.5 mph - N/A   Overcast
5:51 PM 48.0 °F - 37.9 °F 68% 30.12 in 10.0 mi NE 10.4 mph - N/A   Overcast
6:51 PM 48.0 °F - 37.9 °F 68% 30.13 in 10.0 mi NNE 10.4 mph - N/A   Overcast
7:51 PM 48.0 °F - 39.0 °F 71% 30.13 in 10.0 mi NE 9.2 mph - 0.00 in   Light Drizzle
8:51 PM 48.2 °F - 39.2 °F 71% 30.13 in 9.0 mi NE 6.9 mph - N/A   Light Drizzle
9:51 PM 46.9 °F - 41.0 °F 80% 30.12 in 9.0 mi NE 6.9 mph - 0.00 in   Light Drizzle
10:20 PM 46.4 °F 42.9 °F 42.8 °F 87% 30.11 in 6.0 mi NNE 6.9 mph - 0.00 in   Light Drizzle
10:35 PM 46.4 °F 42.4 °F 42.8 °F 87% 30.10 in 5.0 mi NNE 8.1 mph - 0.00 in   Light Drizzle
10:51 PM 46.0 °F 42.5 °F 42.1 °F 86% 30.10 in 4.0 mi North 6.9 mph - 0.00 in   Light Drizzle
11:03 PM 46.4 °F 42.9 °F 42.8 °F 87% 30.09 in 4.0 mi North 6.9 mph - 0.00 in   Light Drizzle
11:24 PM 46.4 °F 42.4 °F 42.8 °F 87% 30.08 in 5.0 mi NNE 8.1 mph - 0.00 in   Light Drizzle
11:51 PM 46.0 °F 41.9 °F 43.0 °F 89% 30.08 in 5.0 mi North 8.1 mph - 0.00 in   Light Drizzle